Tracking 28790 objects as of 19-Apr-2024
HD Live streaming from Space Station
objects crossing your sky now

ASTRA 1D

Track ASTRA 1D now!
ASTRA 1D is classified as:


NORAD ID: 23331
Int'l Code: 1994-070A
Perigee: 36,141.6 km
Apogee: 36,193.6 km
Inclination: 11.1 °
Period: 1,455.2 minutes
Semi major axis: 42538 km
RCS: 75.2376 m2 (large)
Launch date: November 1, 1994
Source: Luxembourg (LUXE)
Launch site: FRENCH GUIANA (FRGUI)

Primarily backup for Astra 1B and 1C; 18 Ku-band transponders; continental Europe.
Your satellite tracking list
Your tracking list is empty




NASA's NSSDC Master Catalog

Two Line Element Set (TLE):
1 23331U 94070A   24109.03340432 -.00000183  00000-0  00000-0 0  9990
2 23331  11.1089  34.0780 0006109  72.6795 113.4516  0.98952791108121
Source of the keplerian elements: AFSPC